Weather History for Reno, NV

Change the Weather History Date:

Sunday, December 9, 2012

  Actual Average Record
Temperature  
Mean Temperature 38 °F 36 °F  
Max Temperature 48 °F 46 °F 65 °F (1939)
Min Temperature 28 °F 26 °F -16 °F (1972)
Degree Days  
Heating Degree Days 27 29  
Month to date heating degree days 180 255  
Since 1 July heating degree days 979 1358  
Cooling Degree Days 0 0  
Month to date cooling degree days 0 0  
Year to date cooling degree days 1272 839  
Moisture  
Dew Point 25 °F    
Average Humidity 62    
Maximum Humidity 85    
Minimum Humidity 38    
Precipitation  
Precipitation 0.00 in 0.03 in 0.35 in (1909)
Month to date precipitation 0.97 0.28  
Year to date precipitation 4.63 6.65  
Snow  
Snow 0.00 in 0.10 in 2.50 in (1949)
Month to date snowfall 0.0 1.0  
Since 1 July snowfall 0.8 4.5  
Snow Depth 0.00 in    
Sea Level Pressure  
Sea Level Pressure 30.33 in    
Wind  
Wind Speed 2 mph (ENE)    
Max Wind Speed 9 mph    
Max Gust Speed 13 mph    
Visibility 10 miles    
Events      
T = Trace of Precipitation, MM = Missing Value Source: NWS Daily Summary

Daily Weather History Graph

Daily Weather History Graph

Search for Another Location

Airport:

Trip Planner

Search our weather history database for the weather conditions in past years. The results will help you decide how hot, cold, wet, or windy it might be!

Date:

Astronomy

Dec. 09, 2012 Rise Set
Actual Time 7:08 AM PST 4:35 PM PST
Civil Twilight 6:38 AM PST 5:05 PM PST
Nautical Twilight 6:04 AM PST 5:38 PM PST
Astronomical Twilight 5:31 AM PST 6:11 PM PST
Moon 2:47 AM PST (12/9) 1:44 PM PST (12/9)
Length of Visible Light 10h 27m
Length of Day
9h 27m
Waning Crescent, 17% of the Moon is Illuminated
Dec 9
Waning Crescent
Dec 13
New
Dec 19
First Quarter
Dec 28
Full
Jan 4
Last Quarter

Hourly Weather History & Observations

Time (PST) Temp. Windchill Dew Point Humidity Pressure Visibility Wind Dir Wind Speed Gust Speed Precip Events Conditions
12:55 AM 33.1 °F - 26.1 °F 75% 30.20 in 10.0 mi Calm Calm - N/A   Mostly Cloudy
1:55 AM 32.0 °F - 26.1 °F 79% 30.21 in 10.0 mi Calm Calm - N/A   Scattered Clouds
2:55 AM 30.0 °F - 25.0 °F 82% 30.21 in 10.0 mi Calm Calm - N/A   Scattered Clouds
3:55 AM 30.9 °F - 25.0 °F 79% 30.23 in 10.0 mi Calm Calm - N/A   Scattered Clouds
4:55 AM 28.9 °F - 24.1 °F 82% 30.27 in 10.0 mi Calm Calm - N/A   Mostly Cloudy
5:55 AM 28.9 °F - 24.1 °F 82% 30.28 in 10.0 mi Calm Calm - N/A   Mostly Cloudy
6:55 AM 28.0 °F - 24.1 °F 85% 30.31 in 10.0 mi Calm Calm - N/A   Mostly Cloudy
7:55 AM 28.9 °F - 24.1 °F 82% 30.33 in 10.0 mi Calm Calm - N/A   Mostly Cloudy
8:55 AM 33.1 °F - 25.0 °F 72% 30.35 in 10.0 mi Calm Calm - N/A   Mostly Cloudy
9:55 AM 36.0 °F - 26.1 °F 67% 30.38 in 10.0 mi Calm Calm - N/A   Mostly Cloudy
10:55 AM 39.9 °F 37.8 °F 23.0 °F 51% 30.37 in 10.0 mi East 3.5 mph - N/A   Scattered Clouds
11:55 AM 43.0 °F - 21.9 °F 43% 30.34 in 10.0 mi Calm Calm - N/A   Mostly Cloudy
12:55 PM 44.1 °F 41.5 °F 23.0 °F 43% 30.31 in 10.0 mi East 4.6 mph - N/A   Scattered Clouds
1:55 PM 46.9 °F - 23.0 °F 39% 30.30 in 10.0 mi ENE 5.8 mph - N/A   Scattered Clouds
2:55 PM 46.9 °F - 24.1 °F 41% 30.31 in 10.0 mi NE 5.8 mph - N/A   Partly Cloudy
3:55 PM 46.0 °F 44.8 °F 25.0 °F 44% 30.32 in 10.0 mi ESE 3.5 mph - N/A   Partly Cloudy
4:55 PM 43.0 °F 41.3 °F 26.1 °F 51% 30.33 in 10.0 mi ENE 3.5 mph - N/A   Scattered Clouds
5:55 PM 41.0 °F - 25.0 °F 53% 30.36 in 10.0 mi Calm Calm - N/A   Partly Cloudy
6:55 PM 37.9 °F 32.1 °F 25.0 °F 60% 30.40 in 10.0 mi NNE 8.1 mph - N/A   Scattered Clouds
7:55 PM 37.0 °F - 25.0 °F 62% 30.42 in 10.0 mi Calm Calm - N/A   Scattered Clouds
8:55 PM 36.0 °F - 24.1 °F 62% 30.41 in 10.0 mi Calm Calm - N/A   Scattered Clouds
9:55 PM 35.1 °F 31.0 °F 25.0 °F 67% 30.41 in 10.0 mi West 4.6 mph - N/A   Scattered Clouds
10:55 PM 33.1 °F - 25.0 °F 72% 30.39 in 10.0 mi Calm Calm - N/A   Mostly Cloudy
11:55 PM 30.9 °F 25.2 °F 25.0 °F 79% 30.39 in 10.0 mi North 5.8 mph - N/A   Mostly Cloudy